This is the latest recevied weather packets stored in our database for station/object K1BWE-1. If no packets are shown the sender has not sent any weather packets the latest 10 day(s).
| Time | Temp. | Humidity | Pressure | Rain* | Wind** | Luminosity | Snow |
|---|---|---|---|---|---|---|---|
| 1778079267 | 21.67° C | 37% | 1017.6 hPa | 0 mm | - | 278 W/m² | - |
| 1778078965 | 21.67° C | 37% | 1017.4 hPa | 0 mm | - | 251 W/m² | - |
| 1778078661 | 20.56° C | 41% | 1017.4 hPa | 0 mm | - | 248 W/m² | - |
| 1778078360 | 21.11° C | 38% | 1017.4 hPa | 0 mm | - | 238 W/m² | - |
| 1778078056 | 20° C | 40% | 1017.6 hPa | 0 mm | - | 215 W/m² | - |
| 1778077755 | 20° C | 39% | 1017.8 hPa | 0 mm | - | 183 W/m² | - |
| 1778077452 | 18.89° C | 46% | 1017.3 hPa | 0 mm | - | 178 W/m² | - |
| 1778077150 | 17.78° C | 47% | 1017.6 hPa | 0 mm | - | 164 W/m² | - |
| 1778076848 | 18.33° C | 45% | 1017.4 hPa | 0 mm | - | 145 W/m² | - |
| 1778076546 | 18.33° C | 47% | 1017.5 hPa | 0 mm | - | 124 W/m² | - |
| 1778076243 | 18.89° C | 47% | 1017.5 hPa | 0 mm | - | 124 W/m² | - |
| 1778075940 | 16.67° C | 49% | 1017.5 hPa | 0 mm | - | 130 W/m² | - |
| 1778075636 | 15° C | 53% | 1017.6 hPa | 0 mm | - | 110 W/m² | - |
| 1778075333 | 15.56° C | 52% | 1017.5 hPa | 0 mm | - | 104 W/m² | - |
| 1778075029 | 15° C | 57% | 1017.4 hPa | 0 mm | - | 64 W/m² | - |
| 1778074726 | 14.44° C | 58% | 1017.4 hPa | 0 mm | - | 57 W/m² | - |
| 1778074423 | 13.89° C | 62% | 1017.4 hPa | 0 mm | - | 52 W/m² | - |
| 1778074119 | 13.33° C | 62% | 1017.4 hPa | 0 mm | - | 46 W/m² | - |
| 1778073817 | 12.78° C | 65% | 1017.5 hPa | 0 mm | - | 41 W/m² | - |
| 1778073515 | 11.67° C | 68% | 1017.4 hPa | 0 mm | - | 36 W/m² | - |
| 1778073211 | 11.67° C | 70% | 1017.3 hPa | 0 mm | - | 31 W/m² | - |
| 1778072908 | 10.56° C | 72% | 1017.3 hPa | 0 mm | - | 26 W/m² | - |
| 1778072604 | 10° C | 76% | 1017.1 hPa | 0 mm | - | 22 W/m² | - |
| 1778072302 | 8.89° C | 78% | 1017.3 hPa | 0 mm | - | 17 W/m² | - |
| 1778072000 | 8.89° C | 79% | 1017.2 hPa | 0 mm | - | 11 W/m² | - |
* Rain latest hour (hover to see other rain measurements)
** Current wind speed in m/s (hover to see current wind gust speed)